User: anonymous   Login
Location: Unspecified
(0.0000°N, 0.0000°E)
Time: 13:22:07
(UTC+00:00)
Language:

Aussat K3 - Orbit

View from above orbital plane
View from above orbital plane
View from above satellite
View from above satellite

Ground track
Ground track

The orbit data is extracted from the following two-line orbital elements,

1 18350U 87078A   17264.29943007 -.00000184 +00000-0 +00000-0 0  9995
2 18350 014.6916 017.1833 0008246 275.6743 113.3478 00.98906092014480
Epoch (UTC): 21 September 2017 07:11:10
Eccentricity: 0.0008246
inclination: 14.6916°
perigee height: 36138 km
apogee height: 36208 km
right ascension of ascending node: 17.1833°
argument of perigee: 275.6743°
revolutions per day: 0.98906092
mean anomaly at epoch: 113.3478°
orbit number at epoch: 1448

The dashed part of the orbit path shows where the satellite is in the earth's shadow,  

DLR